GW1728 Weather Reports


Display with metric or nautical units.
time (UTC)temp
F
wind
direction
speed
MPH
gust
MPH
rain 1hr
in
rain 24hr
in
rain mn
in
humidity
%
barometer
mb
20260503232613 77 322 4.0 7.0 0.00 0.00 0.00 17 1008.8
20260503232111 77 338 7.0 8.0 0.00 0.00 0.00 16 1009.0
20260503231609 77 348 4.0 6.0 0.00 0.00 0.00 17 1008.8
20260503231105 76 334 3.0 3.0 0.00 0.00 0.00 17 1009.1
20260503230602 77 312 3.0 5.0 0.00 0.00 0.00 16 1009.1
20260503230059 77 344 6.0 7.0 0.00 0.00 0.00 16 1009.2
20260503225556 76 327 4.0 5.0 0.00 0.00 0.00 17 1009.4
20260503225051 78 318 5.0 7.0 0.00 0.00 0.00 17 1009.3
20260503224549 77 19 6.0 8.0 0.00 0.00 0.00 16 1009.5
20260503224046 76 340 6.0 7.0 0.00 0.00 0.00 17 1009.5
20260503223544 76 305 6.0 9.0 0.00 0.00 0.00 17 1009.5
20260503223039 77 315 5.0 6.0 0.00 0.00 0.00 16 1009.6
20260503222538 77 346 6.0 7.0 0.00 0.00 0.00 16 1009.8
20260503222035 76 354 3.0 5.0 0.00 0.00 0.00 18 1009.6
20260503221533 76 309 5.0 6.0 0.00 0.00 0.00 17 1009.8
20260503221031 76 263 1.0 2.0 0.00 0.00 0.00 17 1009.8
20260503220527 77 23 1.0 3.0 0.00 0.00 0.00 18 1009.8
20260503220023 77 326 5.0 7.0 0.00 0.00 0.00 17 1009.9
20260503215521 77 1 7.0 10.0 0.00 0.00 0.00 18 1009.8
20260503215018 77 284 3.0 5.0 0.00 0.00 0.00 17 1010.2
20260503214516 77 13 6.0 8.0 0.00 0.00 0.00 17 1010.2
20260503214012 77 281 4.0 5.0 0.00 0.00 0.00 17 1010.3
20260503213511 75 290 3.0 3.0 0.00 0.00 0.00 18 1010.4
20260503213007 77 243 2.0 6.0 0.00 0.00 0.00 17 1010.6
20260503212505 77 265 2.0 3.0 0.00 0.00 0.00 19 1010.4
20260503212002 77 297 3.0 5.0 0.00 0.00 0.00 18 1010.6
20260503211459 74 288 1.0 2.0 0.00 0.00 0.00 19 1010.6
20260503210954 74 9 9.0 10.0 0.00 0.00 0.00 17 1010.8
20260503210451 74 72 2.0 2.0 0.00 0.00 0.00 18 1010.8
20260503205946 74 345 6.0 8.0 0.00 0.00 0.00 17 1010.9
20260503205443 76 296 1.0 2.0 0.00 0.00 0.00 18 1011.3
20260503204939 76 322 2.0 3.0 0.00 0.00 0.00 18 1011.4
20260503204436 76 287 4.0 7.0 0.00 0.00 0.00 19 1011.4
20260503203933 75 0 3.0 5.0 0.00 0.00 0.00 19 1011.4
20260503203431 75 326 3.0 6.0 0.00 0.00 0.00 19 1011.5
20260503202927 75 332 7.0 9.0 0.00 0.00 0.00 18 1011.7
20260503202426 75 329 6.0 7.0 0.00 0.00 0.00 18 1011.7
20260503201924 75 318 3.0 6.0 0.00 0.00 0.00 20 1011.7
20260503201421 73 6 2.0 3.0 0.00 0.00 0.00 19 1011.6
20260503200918 75 304 4.0 6.0 0.00 0.00 0.00 19 1011.5
20260503200414 75 352 5.0 7.0 0.00 0.00 0.00 18 1011.7
20260503195911 75 222 1.0 1.0 0.00 0.00 0.00 20 1011.7
20260503195409 75 296 4.0 6.0 0.00 0.00 0.00 19 1011.9
20260503194905 75 305 5.0 7.0 0.00 0.00 0.00 20 1011.9
20260503194402 75 315 6.0 8.0 0.00 0.00 0.00 19 1012.3
20260503193858 75 282 3.0 5.0 0.00 0.00 0.00 20 1012.0
20260503193353 74 292 3.0 5.0 0.00 0.00 0.00 19 1012.1
20260503192849 74 328 4.0 6.0 0.00 0.00 0.00 21 1012.2
20260503192345 74 240 2.0 5.0 0.00 0.00 0.00 20 1012.3
20260503191842 75 297 6.0 8.0 0.00 0.00 0.00 20 1012.5
20260503191339 75 307 3.0 5.0 0.00 0.00 0.00 20 1012.6
20260503190835 75 223 2.0 3.0 0.00 0.00 0.00 21 1012.5
20260503190332 74 268 2.0 2.0 0.00 0.00 0.00 20 1012.5
20260503185829 73 355 3.0 3.0 0.00 0.00 0.00 23 1012.5
20260503185325 73 309 3.0 3.0 0.00 0.00 0.00 22 1012.8
20260503184820 73 246 2.0 3.0 0.00 0.00 0.00 22 1012.6
20260503184316 74 281 5.0 7.0 0.00 0.00 0.00 21 1012.9
20260503183812 73 1 2.0 3.0 0.00 0.00 0.00 24 1012.9
20260503183309 72 290 3.0 3.0 0.00 0.00 0.00 25 1012.9
20260503182807 72 218 4.0 7.0 0.00 0.00 0.00 24 1013.1
20260503182306 72 264 4.0 5.0 0.00 0.00 0.00 23 1013.0
20260503181803 72 341 3.0 6.0 0.00 0.00 0.00 24 1013.3
20260503181300 72 267 1.0 1.0 0.00 0.00 0.00 24 1013.3
20260503180756 71 336 5.0 7.0 0.00 0.00 0.00 22 1013.6
20260503180254 72 359 4.0 7.0 0.00 0.00 0.00 25 1013.6
20260503175750 71 272 3.0 3.0 0.00 0.00 0.00 26 1013.6
20260503175248 69 339 5.0 6.0 0.00 0.00 0.00 25 1013.4
20260503174744 70 334 2.0 2.0 0.00 0.00 0.00 27 1013.6
20260503174242 69 272 3.0 5.0 0.00 0.00 0.00 25 1013.7
20260503173736 70 305 3.0 5.0 0.00 0.00 0.00 25 1013.6
20260503173233 70 344 4.0 6.0 0.00 0.00 0.00 27 1013.8
20260503172730 69 323 4.0 6.0 0.00 0.00 0.00 26 1013.7
20260503172227 69 154 1.0 1.0 0.00 0.00 0.00 28 1013.9
20260503171723 68 306 4.0 5.0 0.00 0.00 0.00 27 1013.9
20260503171220 68 349 6.0 7.0 0.00 0.00 0.00 27 1013.8
20260503170718 67 0 3.0 3.0 0.00 0.00 0.00 29 1014.2
20260503170214 66 344 5.0 7.0 0.00 0.00 0.00 30 1014.0
20260503160136 62 299 2.0 3.0 0.00 0.00 0.00 43 1014.1
20260503150606 55 254 0.0 0.0 0.00 0.00 0.00 66 1015.0
20260503130950 41 197 0.0 0.0 0.00 0.00 0.00 87 1015.2
20260503130448 41 197 0.0 0.0 0.00 0.00 0.00 90 1015.2
20260503110338 39 194 0.0 1.0 0.00 0.00 0.00 89 1015.9
20260503090224 45 328 1.0 2.0 0.00 0.00 0.00 82 1016.5
20260503081151 45 288 1.0 3.0 0.00 0.00 0.00 81 1016.5
20260503080646 46 283 1.0 1.0 0.00 0.00 0.00 79 1016.7
20260503080144 46 285 0.0 0.0 0.00 0.00 0.00 80 1016.6
20260503072615 50 288 1.0 1.0 0.00 0.00 0.00 73 1016.7
20260503072112 50 288 0.0 1.0 0.00 0.00 0.00 71 1016.6
20260503071609 50 353 4.0 5.0 0.00 0.00 0.00 70 1016.8
20260503071105 49 342 2.0 3.0 0.00 0.00 0.00 73 1016.7
20260503070602 50 356 1.0 2.0 0.00 0.00 0.00 71 1016.7
20260503055021 48 178 0.0 0.0 0.00 0.02 0.02 80 1016.9
20260503054516 48 178 0.0 0.0 0.00 0.02 0.02 79 1016.8
20260503054014 48 176 0.0 0.0 0.00 0.02 0.02 79 1016.8
20260503053512 49 175 0.0 0.0 0.00 0.02 0.02 78 1016.9
20260503053010 49 171 0.0 1.0 0.00 0.02 0.02 78 1017.1
20260503052506 49 171 1.0 2.0 0.00 0.02 0.02 77 1017.2
20260503052002 50 171 0.0 0.0 0.00 0.02 0.02 76 1017.2
20260503051458 51 171 0.0 0.0 0.00 0.02 0.02 75 1017.1
20260503050956 52 171 1.0 1.0 0.00 0.02 0.02 73 1017.2
20260503050451 51 166 4.0 5.0 0.00 0.02 0.02 72 1017.3
20260503045949 52 209 3.0 3.0 0.00 0.02 0.02 71 1017.2
20260503045446 52 227 3.0 3.0 0.00 0.02 0.02 71 1017.2
20260503044943 52 219 4.0 5.0 0.00 0.02 0.02 71 1017.5
20260503044440 52 228 4.0 5.0 0.00 0.02 0.02 72 1017.4
20260503043937 53 207 3.0 3.0 0.00 0.02 0.02 71 1017.3
20260503043433 54 167 5.0 5.0 0.00 0.02 0.02 62 1017.4
20260503042930 53 105 2.0 3.0 0.00 0.02 0.02 71 1017.4
20260503042427 55 224 1.0 1.0 0.00 0.02 0.02 67 1017.5
20260503041924 55 231 3.0 3.0 0.00 0.02 0.02 65 1017.4
20260503041420 58 170 2.0 3.0 0.00 0.02 0.02 52 1017.3
20260503040918 60 117 7.0 9.0 0.00 0.02 0.02 45 1017.2
20260503040415 58 186 7.0 9.0 0.00 0.02 0.02 53 1017.2
20260503035912 55 190 6.0 8.0 0.05 0.02 0.02 64 1017.4
20260503035409 54 285 1.0 1.0 0.12 0.02 0.02 71 1017.7
20260503034906 54 329 3.0 6.0 0.07 0.01 0.01 73 1018.0
20260503034404 58 308 11.0 14.0 0.00 0.00 0.00 62 1018.0
20260503033901 59 344 5.0 7.0 0.00 0.00 0.00 48 1017.9
20260503033358 56 326 4.0 6.0 0.00 0.00 0.00 48 1017.7
20260503032856 56 348 1.0 2.0 0.00 0.00 0.00 50 1017.3
20260503032355 55 69 0.0 0.0 0.00 0.00 0.00 50 1017.1
20260503031852 55 69 0.0 0.0 0.00 0.00 0.00 49 1016.8
20260503031349 55 69 0.0 0.0 0.00 0.00 0.00 51 1016.8
20260503030845 55 64 0.0 0.0 0.00 0.00 0.00 51 1016.6
20260503030342 56 64 0.0 0.0 0.00 0.00 0.00 50 1016.4
20260503025838 56 65 0.0 0.0 0.00 0.00 0.00 52 1016.4
20260503025336 58 64 0.0 0.0 0.00 0.00 0.00 49 1016.4
20260503024833 59 64 0.0 0.0 0.00 0.00 0.00 44 1016.4
20260503024330 60 64 0.0 0.0 0.00 0.00 0.00 39 1016.4
20260503023826 61 64 0.0 0.0 0.00 0.00 0.00 38 1016.4
20260503023324 60 64 0.0 0.0 0.00 0.00 0.00 41 1016.2
20260503022820 61 64 0.0 0.0 0.00 0.00 0.00 41 1016.4
20260503022315 62 65 0.0 0.0 0.00 0.00 0.00 40 1016.4
20260503021811 63 62 0.0 0.0 0.00 0.00 0.00 42 1016.4
20260503021308 63 17 0.0 0.0 0.00 0.00 0.00 39 1016.4
20260503020805 63 17 1.0 2.0 0.00 0.00 0.00 40 1016.4
20260503020303 63 19 2.0 2.0 0.00 0.00 0.00 39 1016.3
20260503015759 64 34 2.0 2.0 0.00 0.00 0.00 37 1016.3
20260503015256 64 53 0.0 0.0 0.00 0.00 0.00 37 1016.4
20260503014752 64 33 0.0 0.0 0.00 0.00 0.00 35 1016.2
20260503014250 64 31 0.0 0.0 0.00 0.00 0.00 36 1016.3
20260503013747 64 30 0.0 0.0 0.00 0.00 0.00 36 1016.2
20260503013244 65 31 0.0 0.0 0.00 0.00 0.00 35 1016.5
20260503012741 66 31 0.0 1.0 0.00 0.00 0.00 33 1016.6
20260503012239 66 18 0.0 0.0 0.00 0.00 0.00 33 1016.5
20260503011735 67 37 0.0 0.0 0.00 0.00 0.00 33 1016.5
20260503011232 66 37 0.0 0.0 0.00 0.00 0.00 33 1016.6
20260503010728 66 48 1.0 1.0 0.00 0.00 0.00 33 1016.6
20260503010225 67 81 0.0 1.0 0.00 0.00 0.00 33 1016.6
20260503005723 66 56 1.0 1.0 0.00 0.00 0.00 33 1016.4
20260503005220 66 47 3.0 3.0 0.00 0.00 0.00 34 1016.6
20260503004716 66 50 3.0 3.0 0.00 0.00 0.00 34 1016.6
20260503004215 66 24 3.0 5.0 0.00 0.00 0.00 34 1016.6
20260503003711 66 51 5.0 6.0 0.00 0.00 0.00 34 1016.7
20260503003208 66 358 2.0 3.0 0.00 0.00 0.00 33 1016.7
20260503002705 66 349 1.0 1.0 0.00 0.00 0.00 33 1016.8
20260503002202 66 11 3.0 3.0 0.00 0.00 0.00 34 1016.9
20260503001658 66 292 0.0 0.0 0.00 0.00 0.00 33 1016.9
20260503001154 67 356 4.0 5.0 0.00 0.00 0.00 33 1016.9
20260503000652 67 293 2.0 2.0 0.00 0.00 0.00 33 1016.9
20260503000149 67 231 0.0 0.0 0.00 0.00 0.00 33 1016.9
20260502235646 68 207 2.0 2.0 0.00 0.00 0.00 33 1017.1
20260502235144 68 65 0.0 1.0 0.00 0.00 0.00 32 1017.2
20260502234640 69 156 1.0 2.0 0.00 0.00 0.00 32 1017.2
20260502234137 68 167 0.0 0.0 0.00 0.00 0.00 32 1017.3
20260502233633 69 150 4.0 6.0 0.00 0.00 0.00 32 1017.2
20260502233130 69 251 0.0 1.0 0.00 0.00 0.00 31 1017.3